Boonton, New Jersey, United States (07005)
Lat: 40.90N, Lon: 74.41W
Wx Zone: NJZ008
Local Info
Past Weather Observations for Tuesday, December 16, 2014

NOTE: This archive is for the closest National Weather Service station to Boonton. Information may differ from the station used for current weather conditions.

Click here for Long-term Archive

Time Weather Temperature Dewpoint Humidity Pressure Winds Precip Visibility
23:53
Overcast
Fog And Mist
43°F / 6°C 43°F / 6°C 100% 29.86 in
(1011 mb)
Calm 0.01 in
(0.25 mm)
2SM
23:32
Overcast
Light Rain
43°F / 6°C 43°F / 6°C 100% 29.86 in
(1011 mb)
N 3.5 mph
(N 6 kph)
0.01 in
(0.25 mm)
2SM
22:53
Overcast
Light Rain
43°F / 6°C 43°F / 6°C 100% 29.89 in
(1012 mb)
Calm 0.02 in
(0.51 mm)
1 1/2SM
21:53
Overcast
Light Rain
43°F / 6°C 43°F / 6°C 100% 29.89 in
(1012 mb)
NE 3.5 mph
(NE 6 kph)
0.00 in
(0.00 mm)
1 3/4SM
21:17
Overcast
Fog And Mist
43°F / 6°C 43°F / 6°C 100% 29.89 in
(1012 mb)
ENE 6.9 mph
(ENE 11 kph)
0.00 in
(0.00 mm)
2SM
20:53
Overcast
Light Rain
43°F / 6°C 43°F / 6°C 100% 29.92 in
(1013 mb)
NE 3.5 mph
(NE 6 kph)
0.04 in
(1.02 mm)
1 1/2SM
20:51
Overcast
Light Rain
43°F / 6°C 43°F / 6°C 100% 29.92 in
(1013 mb)
NE 3.5 mph
(NE 6 kph)
0.04 in
(1.02 mm)
1 1/2SM
20:33
Overcast
Light Rain
43°F / 6°C 43°F / 6°C 100% 29.92 in
(1013 mb)
ENE 3.5 mph
(ENE 6 kph)
0.04 in
(1.02 mm)
2 1/2SM
20:16
Overcast
Light Rain
43°F / 6°C 43°F / 6°C 100% 29.92 in
(1013 mb)
ENE 3.5 mph
(ENE 6 kph)
0.03 in
(0.76 mm)
3SM
19:53
Overcast
Light Rain
43°F / 6°C 43°F / 6°C 100% 29.92 in
(1013 mb)
NE 4.6 mph
(NE 7 kph)
0.08 in
(2.03 mm)
2 1/2SM
19:44
Overcast
Rain
43°F / 6°C 43°F / 6°C 100% 29.95 in
(1014 mb)
Variable 4.6 mph
(Variable 7 kph)
0.07 in
(1.78 mm)
2SM
19:39
Overcast
Light Rain
43°F / 6°C 43°F / 6°C 100% 29.92 in
(1013 mb)
NE 4.6 mph
(NE 7 kph)
0.06 in
(1.52 mm)
2SM
19:31
Overcast
Light Rain
43°F / 6°C 43°F / 6°C 100% 29.95 in
(1014 mb)
NE 3.5 mph
(NE 6 kph)
0.04 in
(1.02 mm)
2 1/2SM
19:12
Overcast
Light Rain
43°F / 6°C 41°F / 5°C 93% 29.95 in
(1014 mb)
NE 4.6 mph
(NE 7 kph)
0.01 in
(0.25 mm)
2 1/2SM
18:53
Overcast
Fog And Mist
43°F / 6°C 41°F / 5°C 93% 29.95 in
(1014 mb)
ENE 6.9 mph
(ENE 11 kph)
- 5SM
17:53
Overcast
Fog And Mist
45°F / 7°C 43°F / 6°C 93% 29.95 in
(1014 mb)
ENE 3.5 mph
(ENE 6 kph)
0.00 in
(0.00 mm)
4SM
16:53
Overcast
Light Rain
45°F / 7°C 41°F / 5°C 87% 29.95 in
(1014 mb)
Calm 0.03 in
(0.76 mm)
5SM
15:53
Overcast
Hazy
46°F / 8°C 39°F / 4°C 76% 29.95 in
(1014 mb)
ESE 6.9 mph
(ESE 11 kph)
- 6SM
15:21
Partly Cloudy
Hazy
46°F / 8°C 39°F / 4°C 76% 29.98 in
(1015 mb)
SE 5.8 mph
(SE 9 kph)
- 5SM
14:53
Overcast
Hazy
46°F / 8°C 37°F / 3°C 71% 29.98 in
(1015 mb)
ESE 8.1 mph
(ESE 13 kph)
- 5SM
14:23
Overcast
Hazy
45°F / 7°C 37°F / 3°C 76% 30.01 in
(1016 mb)
SE 9.2 mph
(SE 15 kph)
- 5SM
13:53
Overcast
Hazy
45°F / 7°C 37°F / 3°C 76% 30.01 in
(1016 mb)
Variable 3.5 mph
(Variable 6 kph)
- 6SM
13:39
Overcast
Hazy
45°F / 7°C 36°F / 2°C 71% 30.01 in
(1016 mb)
E 3.5 mph
(E 6 kph)
- 6SM
12:53
Overcast
43°F / 6°C 36°F / 2°C 76% 30.04 in
(1017 mb)
ENE 4.6 mph
(ENE 7 kph)
- 7SM
11:53
Overcast
41°F / 5°C 36°F / 2°C 81% 30.04 in
(1017 mb)
E 6.9 mph
(E 11 kph)
- 7SM
10:53
Overcast
39°F / 4°C 34°F / 1°C 81% 30.09 in
(1019 mb)
ENE 4.6 mph
(ENE 7 kph)
- 8SM
09:53
Overcast
37°F / 3°C 34°F / 1°C 87% 30.09 in
(1019 mb)
Calm - 10SM
08:53
Overcast
36°F / 2°C 30°F / -1°C 81% 30.09 in
(1019 mb)
NE 3.5 mph
(NE 6 kph)
- 10SM
07:53
Overcast
34°F / 1°C 30°F / -1°C 87% 30.12 in
(1020 mb)
Calm - 10SM
06:53
Overcast
34°F / 1°C 30°F / -1°C 87% 30.12 in
(1020 mb)
Calm - 10SM
05:53
Overcast
34°F / 1°C 30°F / -1°C 87% 30.09 in
(1019 mb)
Calm - 10SM
04:53
Overcast
32°F / 0°C 30°F / -1°C 93% 30.09 in
(1019 mb)
Calm - 10SM
03:53
Overcast
30°F / -1°C 28°F / -2°C 93% 30.09 in
(1019 mb)
Calm - 10SM
03:49
Overcast
30°F / -1°C 28°F / -2°C 93% 30.09 in
(1019 mb)
Calm - 10SM
02:53
Clear
28°F / -2°C 27°F / -3°C 93% 30.12 in
(1020 mb)
Calm - 10SM
01:53
Clear
30°F / -1°C 27°F / -3°C 86% 30.12 in
(1020 mb)
Calm - 10SM
00:53
Clear
30°F / -1°C 28°F / -2°C 93% 30.12 in
(1020 mb)
Calm - 10SM
Time Weather Temperature Dewpoint Humidity Pressure Winds Precip Visibility


Weather for websites

WeatherForYou.com, LLC is not responsible for any damages or problems caused by this service. Current weather conditions are obtained from the closest station including government and personal stations which may have varying degrees of accuracy. Weather forecasts are derived from the NOAA NDFD. Like all things, this site belongs to Jesus Christ... He just trusts me to maintain it. If you have any questions or comments email webmaster@weatherforyou.com

Copyright © 2014, WeatherForYou.com LLC. All rights reserved.